Regional Weather Roundup
Issued by NWS

Home | Current Version | Previous Version | Graphics & Text | Print | Product List | Glossary On
Versions: 1 2 3 4 5 6 7 8 9 10 11 12 13 14 15 16 17 18 19 20 21 22 23 24 25 26 27 28 29 30 31 32 33 34 35 36 37 38 39 40 41 42 43 44 45 46 47 48 49 50
000
ASUS43 KFSD 251410
RWRSD

WEATHER ROUNDUP FOR SOUTH DAKOTA
NATIONAL WEATHER SERVICE SIOUX FALLS SD
900 AM CDT FRI JUL 25 2014

NOTE: "FAIR" INDICATES FEW OR NO CLOUDS BELOW 12,000 FEET WITH NO
SIGNIFICANT WEATHER AND/OR OBSTRUCTIONS TO VISIBILITY.


SDZ001>005-009-010-012>017-251500-
NORTHWEST AND NORTH CENTRAL SOUTH DAKOTA

CITY           SKY/WX    TMP DP  RH WIND       PRES   REMARKS
BUFFALO          N/A     61  48  62 SW6       29.93R
FAITH            N/A     66  46  48 N21       29.92R
MOBRIDGE       CLOUDY    69  66  90 NW12      29.81R
$$

SDZ012>016-024>037-041>051-057-063-072>074-251500-
SOUTHWEST AND SOUTH CENTRAL SOUTH DAKOTA

CITY           SKY/WX    TMP DP  RH WIND       PRES   REMARKS
RAPID CTY ARPT SUNNY     68  42  38 N14       30.00R
PIERRE         SUNNY     74  66  76 N17       29.82R
CUSTER         SUNNY     66  42  41 N5        30.11R
ELLSWORTH AFB  SUNNY     68  40  35 N10       30.00R
PHILIP         MOSUNNY   72  53  51 NW15      29.91R
PINE RIDGE     SUNNY     68  41  37 N13G20    30.00R
WINNER         FAIR      77  66  68 N14       29.82R
$$

SDZ004>011-016>023-039-040-251500-
NORTHEAST SOUTH DAKOTA

CITY           SKY/WX    TMP DP  RH WIND       PRES   REMARKS
ABERDEEN       MOSUNNY   71  66  84 N7        29.75R
WATERTOWN      SUNNY     69  64  84 S10       29.75S
SISSETON         N/A     67  65  93 S7        29.75R
$$

SDZ017-020-022-023-036>040-048>070-251500-
SOUTHEAST SOUTH DAKOTA

CITY           SKY/WX    TMP DP  RH WIND       PRES   REMARKS
SIOUX FALLS    MOSUNNY   69  62  78 SE18G26   29.76F
HURON          SUNNY     71  63  75 S10G21    29.75R
CHAMBERLAIN    SUNNY     74  66  75 N6        29.78R
MITCHELL       MOSUNNY   71  65  81 SE9       29.76R
YANKTON        SUNNY     70  63  78 E13G21    29.76S
$$

ABBREVIATIONS USED IN REMARKS
   TC - TEMPERATURE IN CELSIUS
  WCI - WIND CHILL INDEX
   HX - HEAT INDEX
  VSB - VISIBILITY



USA.gov is the U.S. government's official web portal to all federal, state and local government web resources and services.